Time,TemperatureF,DewpointF,PressureIn,WindDirection,WindDirectionDegrees,WindSpeedMPH,WindSpeedGustMPH,Humidity,HourlyPrecipIn,Conditions,Clouds,dailyrainin,SoftwareType,DateUTC
2013-10-19 00:00:00,47.1,41.3,29.93,NW,306,0.0,2.0,80,0.00,,---,0.00,VWS V14.01,2013-10-19 04:00:00,
2013-10-19 00:01:00,47.0,41.2,29.93,NW,307,0.0,2.0,80,0.00,,---,0.00,VWS V14.01,2013-10-19 04:01:00,
2013-10-19 00:02:00,47.0,41.2,29.94,NW,307,0.0,2.0,80,0.00,,---,0.00,VWS V14.01,2013-10-19 04:02:00,
2013-10-19 00:04:00,47.0,41.5,29.93,NW,307,0.0,2.0,81,0.00,,---,0.00,VWS V14.01,2013-10-19 04:04:00,
2013-10-19 00:10:00,46.9,40.7,29.94,NW,307,0.0,1.0,79,0.00,,---,0.00,VWS V14.01,2013-10-19 04:10:00,
2013-10-19 00:15:00,47.1,40.9,29.93,NW,307,1.0,2.0,79,0.00,,---,0.00,VWS V14.01,2013-10-19 04:15:00,
2013-10-19 00:20:00,47.0,40.8,29.93,NW,307,0.0,2.0,79,0.00,,---,0.00,VWS V14.01,2013-10-19 04:20:00,
2013-10-19 00:25:00,46.9,41.1,29.93,NW,307,0.0,2.0,80,0.00,,---,0.00,VWS V14.01,2013-10-19 04:25:00,
2013-10-19 00:30:00,46.9,41.1,29.93,NW,307,0.0,1.0,80,0.00,,---,0.00,VWS V14.01,2013-10-19 04:30:00,
2013-10-19 00:35:00,46.7,40.9,29.93,NW,307,0.0,2.0,80,0.00,,---,0.00,VWS V14.01,2013-10-19 04:35:00,
2013-10-19 00:40:00,46.7,40.9,29.93,NW,307,0.0,2.0,80,0.00,,---,0.00,VWS V14.01,2013-10-19 04:40:00,
2013-10-19 00:41:00,46.7,40.5,29.93,NW,307,0.0,2.0,79,0.00,,---,0.00,VWS V14.01,2013-10-19 04:41:00,
2013-10-19 00:46:00,46.6,41.1,29.93,NW,307,1.0,2.0,81,0.00,,---,0.00,VWS V14.01,2013-10-19 04:46:00,
2013-10-19 00:50:00,46.6,41.1,29.93,NW,307,1.0,2.0,81,0.00,,---,0.00,VWS V14.01,2013-10-19 04:50:00,
2013-10-19 00:51:00,46.5,41.0,29.93,NW,307,0.0,2.0,81,0.00,,---,0.00,VWS V14.01,2013-10-19 04:51:00,
2013-10-19 00:56:00,46.3,41.1,29.93,NW,306,0.0,2.0,82,0.00,,---,0.00,VWS V14.01,2013-10-19 04:56:00,
2013-10-19 01:00:00,46.3,41.1,29.93,NW,306,0.0,2.0,82,0.00,,---,0.00,VWS V14.01,2013-10-19 05:00:00,
2013-10-19 01:01:00,46.1,41.2,29.94,NW,307,0.0,1.0,83,0.00,,---,0.00,VWS V14.01,2013-10-19 05:01:00,
2013-10-19 01:06:00,46.0,41.1,29.94,NW,307,0.0,0.0,83,0.00,,---,0.00,VWS V14.01,2013-10-19 05:06:00,
2013-10-19 01:10:00,46.0,41.1,29.94,NW,307,0.0,1.0,83,0.00,,---,0.00,VWS V14.01,2013-10-19 05:10:00,
2013-10-19 01:11:00,45.7,40.8,29.93,NW,307,0.0,1.0,83,0.00,,---,0.00,VWS V14.01,2013-10-19 05:11:00,
2013-10-19 01:16:00,45.5,40.3,29.93,NW,307,0.0,0.0,82,0.00,,---,0.00,VWS V14.01,2013-10-19 05:16:00,
2013-10-19 01:20:00,45.6,40.4,29.93,NW,307,0.0,2.0,82,0.00,,---,0.00,VWS V14.01,2013-10-19 05:20:00,
2013-10-19 01:21:00,45.4,40.9,29.93,NW,307,0.0,1.0,84,0.00,,---,0.00,VWS V14.01,2013-10-19 05:21:00,
2013-10-19 01:26:00,45.2,40.3,29.93,NW,307,0.0,0.0,83,0.00,,---,0.00,VWS V14.01,2013-10-19 05:26:00,
2013-10-19 01:30:00,45.2,40.3,29.93,NW,307,0.0,1.0,83,0.00,,---,0.00,VWS V14.01,2013-10-19 05:30:00,
2013-10-19 01:31:00,45.1,40.6,29.93,NW,307,0.0,0.0,84,0.00,,---,0.00,VWS V14.01,2013-10-19 05:31:00,
2013-10-19 01:37:00,45.0,40.5,29.93,NW,307,0.0,0.0,84,0.00,,---,0.00,VWS V14.01,2013-10-19 05:37:00,
2013-10-19 01:40:00,45.0,40.5,29.93,NW,307,0.0,0.0,84,0.00,,---,0.00,VWS V14.01,2013-10-19 05:40:00,
2013-10-19 01:42:00,44.9,40.7,29.94,NW,307,0.0,0.0,85,0.00,,---,0.00,VWS V14.01,2013-10-19 05:42:00,
2013-10-19 01:47:00,44.8,40.6,29.94,NW,307,0.0,0.0,85,0.00,,---,0.00,VWS V14.01,2013-10-19 05:47:00,
2013-10-19 01:50:00,44.8,40.6,29.94,NW,307,0.0,1.0,85,0.00,,---,0.00,VWS V14.01,2013-10-19 05:50:00,
2013-10-19 01:52:00,44.7,40.5,29.94,NW,307,0.0,0.0,85,0.00,,---,0.00,VWS V14.01,2013-10-19 05:52:00,
2013-10-19 01:57:00,44.6,40.4,29.93,NW,307,0.0,0.0,85,0.00,,---,0.00,VWS V14.01,2013-10-19 05:57:00,
2013-10-19 02:00:00,44.6,40.4,29.93,NW,307,0.0,1.0,85,0.00,,---,0.00,VWS V14.01,2013-10-19 06:00:00,
2013-10-19 02:02:00,44.6,40.4,29.93,NW,307,0.0,1.0,85,0.00,,---,0.00,VWS V14.01,2013-10-19 06:02:00,
2013-10-19 02:07:00,44.4,40.2,29.93,NW,307,0.0,1.0,85,0.00,,---,0.00,VWS V14.01,2013-10-19 06:07:00,
2013-10-19 02:10:00,44.5,40.3,29.93,NW,306,0.0,1.0,85,0.00,,---,0.00,VWS V14.01,2013-10-19 06:10:00,
2013-10-19 02:13:00,44.3,40.4,29.93,NW,307,0.0,1.0,86,0.00,,---,0.00,VWS V14.01,2013-10-19 06:13:00,
2013-10-19 02:18:00,44.2,40.3,29.93,NW,306,0.0,1.0,86,0.00,,---,0.00,VWS V14.01,2013-10-19 06:18:00,
2013-10-19 02:20:00,44.2,40.0,29.93,NW,307,0.0,1.0,85,0.00,,---,0.00,VWS V14.01,2013-10-19 06:20:00,
2013-10-19 02:23:00,44.3,40.4,29.93,NW,307,0.0,2.0,86,0.00,,---,0.00,VWS V14.01,2013-10-19 06:23:00,
2013-10-19 02:28:00,44.3,40.4,29.93,NW,307,0.0,0.0,86,0.00,,---,0.00,VWS V14.01,2013-10-19 06:28:00,
2013-10-19 02:30:00,44.3,40.4,29.93,NW,307,0.0,2.0,86,0.00,,---,0.00,VWS V14.01,2013-10-19 06:30:00,
2013-10-19 02:33:00,44.4,40.5,29.93,NW,307,0.0,0.0,86,0.00,,---,0.00,VWS V14.01,2013-10-19 06:33:00,
2013-10-19 02:38:00,44.4,40.5,29.93,NW,307,0.0,0.0,86,0.00,,---,0.00,VWS V14.01,2013-10-19 06:38:00,
2013-10-19 02:40:00,44.4,40.5,29.93,NW,307,0.0,0.0,86,0.00,,---,0.00,VWS V14.01,2013-10-19 06:40:00,
2013-10-19 02:43:00,44.5,40.3,29.93,NW,307,0.0,1.0,85,0.00,,---,0.00,VWS V14.01,2013-10-19 06:43:00,
2013-10-19 02:48:00,44.6,40.4,29.93,NW,307,0.0,1.0,85,0.00,,---,0.00,VWS V14.01,2013-10-19 06:48:00,
2013-10-19 02:50:00,44.5,40.3,29.93,NW,307,0.0,1.0,85,0.00,,---,0.00,VWS V14.01,2013-10-19 06:50:00,
2013-10-19 02:54:00,44.6,40.4,29.93,NW,307,0.0,1.0,85,0.00,,---,0.00,VWS V14.01,2013-10-19 06:54:00,
2013-10-19 02:59:00,44.5,40.3,29.93,NW,307,0.0,1.0,85,0.00,,---,0.00,VWS V14.01,2013-10-19 06:59:00,
2013-10-19 03:00:00,44.6,40.4,29.93,NW,307,0.0,1.0,85,0.00,,---,0.00,VWS V14.01,2013-10-19 07:00:00,
2013-10-19 03:04:00,44.5,40.3,29.92,NW,307,0.0,1.0,85,0.00,,---,0.00,VWS V14.01,2013-10-19 07:04:00,
2013-10-19 03:09:00,44.4,40.2,29.92,NW,307,0.0,0.0,85,0.00,,---,0.00,VWS V14.01,2013-10-19 07:09:00,
2013-10-19 03:10:00,44.4,40.2,29.93,NW,307,0.0,1.0,85,0.00,,---,0.00,VWS V14.01,2013-10-19 07:10:00,
2013-10-19 03:14:00,44.5,40.3,29.93,NW,307,0.0,0.0,85,0.00,,---,0.00,VWS V14.01,2013-10-19 07:14:00,
2013-10-19 03:19:00,44.5,40.0,29.93,NW,307,0.0,2.0,84,0.00,,---,0.00,VWS V14.01,2013-10-19 07:19:00,
2013-10-19 03:20:00,44.5,40.3,29.93,NW,307,0.0,0.0,85,0.00,,---,0.00,VWS V14.01,2013-10-19 07:20:00,
2013-10-19 03:24:00,44.6,40.1,29.93,NW,307,0.0,3.0,84,0.00,,---,0.00,VWS V14.01,2013-10-19 07:24:00,
2013-10-19 03:29:00,44.6,40.1,29.93,NW,307,0.0,2.0,84,0.00,,---,0.00,VWS V14.01,2013-10-19 07:29:00,
2013-10-19 03:30:00,44.6,40.1,29.93,NW,307,0.0,3.0,84,0.00,,---,0.00,VWS V14.01,2013-10-19 07:30:00,
2013-10-19 03:34:00,44.6,40.1,29.93,NW,307,0.0,2.0,84,0.00,,---,0.00,VWS V14.01,2013-10-19 07:34:00,
2013-10-19 03:40:00,44.6,40.1,29.93,NW,307,0.0,1.0,84,0.00,,---,0.00,VWS V14.01,2013-10-19 07:40:00,
2013-10-19 03:45:00,44.5,40.0,29.93,NW,307,1.0,1.0,84,0.00,,---,0.00,VWS V14.01,2013-10-19 07:45:00,
2013-10-19 03:50:00,44.4,39.9,29.93,NW,307,0.0,1.0,84,0.00,,---,0.00,VWS V14.01,2013-10-19 07:50:00,
2013-10-19 03:55:00,44.3,39.8,29.93,NW,307,0.0,1.0,84,0.00,,---,0.00,VWS V14.01,2013-10-19 07:55:00,
2013-10-19 04:00:00,44.2,40.0,29.93,NW,307,0.0,1.0,85,0.00,,---,0.00,VWS V14.01,2013-10-19 08:00:00,
2013-10-19 04:05:00,44.1,39.9,29.93,NW,307,0.0,2.0,85,0.00,,---,0.00,VWS V14.01,2013-10-19 08:05:00,
2013-10-19 04:10:00,43.9,40.3,29.93,NW,307,0.0,1.0,87,0.00,,---,0.00,VWS V14.01,2013-10-19 08:10:00,
2013-10-19 04:15:00,43.6,40.0,29.93,NW,307,0.0,2.0,87,0.00,,---,0.00,VWS V14.01,2013-10-19 08:15:00,
2013-10-19 04:20:00,43.6,40.0,29.93,NW,307,0.0,2.0,87,0.00,,---,0.00,VWS V14.01,2013-10-19 08:20:00,
2013-10-19 04:21:00,43.3,40.0,29.94,NW,307,0.0,2.0,88,0.00,,---,0.00,VWS V14.01,2013-10-19 08:21:00,
2013-10-19 04:26:00,43.2,39.9,29.93,NW,307,0.0,2.0,88,0.00,,---,0.00,VWS V14.01,2013-10-19 08:26:00,
2013-10-19 04:30:00,43.2,39.9,29.93,NW,307,0.0,2.0,88,0.00,,---,0.00,VWS V14.01,2013-10-19 08:30:00,
2013-10-19 04:31:00,43.0,39.7,29.94,NW,307,1.0,2.0,88,0.00,,---,0.00,VWS V14.01,2013-10-19 08:31:00,
2013-10-19 04:36:00,42.9,39.6,29.93,NW,307,1.0,2.0,88,0.00,,---,0.00,VWS V14.01,2013-10-19 08:36:00,
2013-10-19 04:40:00,42.9,39.6,29.93,NW,307,1.0,2.0,88,0.00,,---,0.00,VWS V14.01,2013-10-19 08:40:00,
2013-10-19 04:41:00,42.7,39.4,29.93,NW,307,0.0,1.0,88,0.00,,---,0.00,VWS V14.01,2013-10-19 08:41:00,
2013-10-19 04:46:00,42.7,39.4,29.93,NW,307,0.0,0.0,88,0.00,,---,0.00,VWS V14.01,2013-10-19 08:46:00,
2013-10-19 04:50:00,42.7,39.4,29.93,NW,307,0.0,1.0,88,0.00,,---,0.00,VWS V14.01,2013-10-19 08:50:00,
2013-10-19 04:51:00,42.6,39.6,29.94,NW,307,0.0,1.0,89,0.00,,---,0.00,VWS V14.01,2013-10-19 08:51:00,
2013-10-19 04:56:00,42.5,39.5,29.94,NW,307,0.0,0.0,89,0.00,,---,0.00,VWS V14.01,2013-10-19 08:56:00,
2013-10-19 05:00:00,42.5,39.5,29.94,NW,307,0.0,1.0,89,0.00,,---,0.00,VWS V14.01,2013-10-19 09:00:00,
2013-10-19 05:01:00,42.4,39.4,29.94,NW,307,0.0,0.0,89,0.00,,---,0.00,VWS V14.01,2013-10-19 09:01:00,
2013-10-19 05:06:00,42.4,39.1,29.94,NW,307,0.0,0.0,88,0.00,,---,0.00,VWS V14.01,2013-10-19 09:06:00,
2013-10-19 05:10:00,42.4,39.1,29.94,NW,307,0.0,0.0,88,0.00,,---,0.00,VWS V14.01,2013-10-19 09:10:00,
2013-10-19 05:12:00,42.4,39.4,29.94,NW,307,0.0,0.0,89,0.00,,---,0.00,VWS V14.01,2013-10-19 09:12:00,
2013-10-19 05:17:00,42.3,39.3,29.94,NW,307,0.0,0.0,89,0.00,,---,0.00,VWS V14.01,2013-10-19 09:17:00,
2013-10-19 05:20:00,42.3,39.3,29.94,NW,307,0.0,0.0,89,0.00,,---,0.00,VWS V14.01,2013-10-19 09:20:00,
2013-10-19 05:22:00,42.3,39.6,29.94,NW,307,0.0,0.0,90,0.00,,---,0.00,VWS V14.01,2013-10-19 09:22:00,
2013-10-19 05:27:00,42.4,39.7,29.93,NW,307,0.0,0.0,90,0.00,,---,0.00,VWS V14.01,2013-10-19 09:27:00,
2013-10-19 05:30:00,43.2,39.9,29.93,NW,307,0.0,2.0,88,0.00,,---,0.00,VWS V14.01,2013-10-19 09:30:00,
2013-10-19 05:32:00,42.3,39.3,29.94,NW,307,0.0,1.0,89,0.00,,---,0.00,VWS V14.01,2013-10-19 09:32:00,
2013-10-19 05:37:00,42.2,39.5,29.94,NW,307,0.0,0.0,90,0.00,,---,0.00,VWS V14.01,2013-10-19 09:37:00,
2013-10-19 05:40:00,42.3,39.3,29.94,NW,307,0.0,2.0,89,0.00,,---,0.00,VWS V14.01,2013-10-19 09:40:00,
2013-10-19 05:42:00,42.3,39.6,29.94,NW,307,0.0,0.0,90,0.00,,---,0.00,VWS V14.01,2013-10-19 09:42:00,
2013-10-19 05:47:00,42.3,39.3,29.94,NW,307,0.0,0.0,89,0.00,,---,0.00,VWS V14.01,2013-10-19 09:47:00,
2013-10-19 05:50:00,42.3,39.3,29.94,NW,307,0.0,0.0,89,0.00,,---,0.00,VWS V14.01,2013-10-19 09:50:00,
2013-10-19 05:52:00,42.4,39.4,29.93,NW,307,0.0,1.0,89,0.00,,---,0.00,VWS V14.01,2013-10-19 09:52:00,
2013-10-19 05:57:00,42.5,39.5,29.93,NW,307,0.0,0.0,89,0.00,,---,0.00,VWS V14.01,2013-10-19 09:57:00,
2013-10-19 06:00:00,42.4,39.4,29.94,NW,307,0.0,1.0,89,0.00,,---,0.00,VWS V14.01,2013-10-19 10:00:00,
2013-10-19 06:03:00,42.5,39.5,29.93,NW,307,0.0,2.0,89,0.00,,---,0.00,VWS V14.01,2013-10-19 10:03:00,
2013-10-19 06:08:00,42.4,39.4,29.93,NW,307,0.0,0.0,89,0.00,,---,0.00,VWS V14.01,2013-10-19 10:08:00,
2013-10-19 06:10:00,42.4,39.4,29.93,NW,307,0.0,2.0,89,0.00,,---,0.00,VWS V14.01,2013-10-19 10:10:00,
2013-10-19 06:13:00,42.4,39.7,29.93,NW,307,0.0,1.0,90,0.00,,---,0.00,VWS V14.01,2013-10-19 10:13:00,
2013-10-19 06:18:00,42.3,39.6,29.93,NW,307,0.0,1.0,90,0.00,,---,0.00,VWS V14.01,2013-10-19 10:18:00,
2013-10-19 06:20:00,42.4,39.7,29.93,NW,307,0.0,1.0,90,0.00,,---,0.00,VWS V14.01,2013-10-19 10:20:00,
2013-10-19 06:23:00,42.3,39.6,29.93,NW,307,0.0,2.0,90,0.00,,---,0.00,VWS V14.01,2013-10-19 10:23:00,
2013-10-19 06:28:00,42.2,39.5,29.92,NW,307,1.0,1.0,90,0.00,,---,0.00,VWS V14.01,2013-10-19 10:28:00,
2013-10-19 06:30:00,42.3,39.6,29.92,NW,306,1.0,2.0,90,0.00,,---,0.00,VWS V14.01,2013-10-19 10:30:00,
2013-10-19 06:33:00,42.1,39.4,29.93,NW,307,2.0,3.0,90,0.00,,---,0.00,VWS V14.01,2013-10-19 10:33:00,
2013-10-19 06:38:00,42.1,39.4,29.93,NW,307,0.0,3.0,90,0.00,,---,0.00,VWS V14.01,2013-10-19 10:38:00,
2013-10-19 06:40:00,42.1,39.4,29.93,NW,307,2.0,3.0,90,0.00,,---,0.00,VWS V14.01,2013-10-19 10:40:00,
2013-10-19 06:43:00,42.2,39.5,29.93,NW,307,1.0,3.0,90,0.00,,---,0.00,VWS V14.01,2013-10-19 10:43:00,
2013-10-19 06:48:00,42.2,39.2,29.93,NW,307,0.0,2.0,89,0.00,,---,0.00,VWS V14.01,2013-10-19 10:48:00,
2013-10-19 06:50:00,42.2,39.5,29.93,NW,307,1.0,3.0,90,0.00,,---,0.00,VWS V14.01,2013-10-19 10:50:00,
2013-10-19 06:54:00,42.3,39.3,29.92,NW,307,1.0,2.0,89,0.00,,---,0.00,VWS V14.01,2013-10-19 10:54:00,
2013-10-19 06:59:00,42.3,39.3,29.93,NW,307,1.0,2.0,89,0.00,,---,0.00,VWS V14.01,2013-10-19 10:59:00,
2013-10-19 07:00:00,42.3,39.3,29.92,NW,307,0.0,2.0,89,0.00,,---,0.00,VWS V14.01,2013-10-19 11:00:00,
2013-10-19 07:04:00,42.3,39.3,29.93,NW,307,1.0,2.0,89,0.00,,---,0.00,VWS V14.01,2013-10-19 11:04:00,
2013-10-19 07:09:00,42.3,39.3,29.93,NW,307,0.0,2.0,89,0.00,,---,0.00,VWS V14.01,2013-10-19 11:09:00,
2013-10-19 07:10:00,42.3,39.3,29.92,NW,307,0.0,2.0,89,0.00,,---,0.00,VWS V14.01,2013-10-19 11:10:00,
2013-10-19 07:14:00,42.2,39.2,29.93,NW,307,0.0,2.0,89,0.00,,---,0.00,VWS V14.01,2013-10-19 11:14:00,
2013-10-19 07:19:00,42.1,39.1,29.93,NW,307,0.0,0.0,89,0.00,,---,0.00,VWS V14.01,2013-10-19 11:19:00,
2013-10-19 07:20:00,42.1,39.1,29.93,NW,307,0.0,2.0,89,0.00,,---,0.00,VWS V14.01,2013-10-19 11:20:00,
2013-10-19 07:24:00,42.0,39.0,29.93,NW,307,0.0,1.0,89,0.00,,---,0.00,VWS V14.01,2013-10-19 11:24:00,
2013-10-19 07:29:00,42.0,39.3,29.93,NW,307,0.0,0.0,90,0.00,,---,0.00,VWS V14.01,2013-10-19 11:29:00,
2013-10-19 07:30:00,42.0,39.0,29.93,NW,307,0.0,1.0,89,0.00,,---,0.00,VWS V14.01,2013-10-19 11:30:00,
2013-10-19 07:34:00,42.0,39.3,29.93,NW,307,0.0,1.0,90,0.00,,---,0.00,VWS V14.01,2013-10-19 11:34:00,
2013-10-19 07:40:00,42.0,39.3,29.93,NW,307,1.0,1.0,90,0.00,,---,0.00,VWS V14.01,2013-10-19 11:40:00,
2013-10-19 07:45:00,42.1,39.4,29.92,NW,307,0.0,1.0,90,0.00,,---,0.00,VWS V14.01,2013-10-19 11:45:00,
2013-10-19 07:50:00,42.3,39.9,29.92,NW,307,0.0,1.0,91,0.00,,---,0.00,VWS V14.01,2013-10-19 11:50:00,
2013-10-19 07:55:00,42.5,40.1,29.93,NW,307,0.0,1.0,91,0.00,,---,0.00,VWS V14.01,2013-10-19 11:55:00,
2013-10-19 08:00:00,42.8,40.4,29.93,NW,307,0.0,0.0,91,0.00,,---,0.00,VWS V14.01,2013-10-19 12:00:00,
2013-10-19 08:05:00,43.1,40.7,29.93,NW,307,2.0,2.0,91,0.00,,---,0.00,VWS V14.01,2013-10-19 12:05:00,
2013-10-19 08:10:00,43.4,40.7,29.93,NW,307,1.0,2.0,90,0.00,,---,0.00,VWS V14.01,2013-10-19 12:10:00,
2013-10-19 08:15:00,43.6,40.9,29.93,NW,307,2.0,2.0,90,0.00,,---,0.00,VWS V14.01,2013-10-19 12:15:00,
2013-10-19 08:20:00,44.0,40.4,29.93,NW,307,1.0,2.0,87,0.00,,---,0.00,VWS V14.01,2013-10-19 12:20:00,
2013-10-19 08:26:00,44.4,41.4,29.93,NW,307,0.0,2.0,89,0.00,,---,0.00,VWS V14.01,2013-10-19 12:26:00,
2013-10-19 08:30:00,44.5,41.5,29.93,NW,307,0.0,2.0,89,0.00,,---,0.00,VWS V14.01,2013-10-19 12:30:00,
2013-10-19 08:31:00,44.6,41.3,29.94,NW,307,1.0,1.0,88,0.00,,---,0.00,VWS V14.01,2013-10-19 12:31:00,
2013-10-19 08:36:00,45.0,41.7,29.93,NW,307,0.0,1.0,88,0.00,,---,0.00,VWS V14.01,2013-10-19 12:36:00,
2013-10-19 08:40:00,45.0,41.7,29.93,NW,307,0.0,1.0,88,0.00,,---,0.00,VWS V14.01,2013-10-19 12:40:00,
2013-10-19 08:41:00,45.3,42.3,29.94,NW,307,0.0,0.0,89,0.00,,---,0.00,VWS V14.01,2013-10-19 12:41:00,
2013-10-19 08:46:00,45.6,42.3,29.93,NW,307,0.0,1.0,88,0.00,,---,0.00,VWS V14.01,2013-10-19 12:46:00,
2013-10-19 08:50:00,45.6,42.3,29.93,NW,307,0.0,1.0,88,0.00,,---,0.00,VWS V14.01,2013-10-19 12:50:00,
2013-10-19 08:51:00,46.0,43.0,29.93,NW,307,0.0,0.0,89,0.00,,---,0.00,VWS V14.01,2013-10-19 12:51:00,
2013-10-19 08:56:00,46.5,43.7,29.93,NW,307,0.0,0.0,90,0.00,,---,0.00,VWS V14.01,2013-10-19 12:56:00,
2013-10-19 09:00:00,46.5,43.7,29.93,NW,307,0.0,0.0,90,0.00,,---,0.00,VWS V14.01,2013-10-19 13:00:00,
2013-10-19 09:01:00,46.9,43.5,29.93,NW,307,0.0,0.0,88,0.00,,---,0.00,VWS V14.01,2013-10-19 13:01:00,
2013-10-19 09:10:00,47.3,43.0,29.93,NW,307,0.0,0.0,85,0.00,,---,0.00,VWS V14.01,2013-10-19 13:10:00,
2013-10-19 09:20:00,48.3,42.8,29.94,NW,307,0.0,0.0,81,0.00,,---,0.00,VWS V14.01,2013-10-19 13:20:00,
2013-10-19 09:30:00,49.8,42.9,29.93,NW,307,0.0,1.0,77,0.00,,---,0.00,VWS V14.01,2013-10-19 13:30:00,
2013-10-19 09:40:00,51.4,43.4,29.94,NW,307,0.0,1.0,74,0.00,,---,0.00,VWS V14.01,2013-10-19 13:40:00,
2013-10-19 09:50:00,52.6,43.5,29.93,NW,307,0.0,0.0,71,0.00,,---,0.00,VWS V14.01,2013-10-19 13:50:00,
2013-10-19 10:00:00,53.5,44.3,29.92,NW,307,0.0,1.0,71,0.00,,---,0.00,VWS V14.01,2013-10-19 14:00:00,
2013-10-19 10:10:00,54.6,44.3,29.92,NW,307,0.0,1.0,68,0.00,,---,0.00,VWS V14.01,2013-10-19 14:10:00,
2013-10-19 10:20:00,55.4,44.2,29.92,NNW,327,0.0,2.0,66,0.00,,---,0.00,VWS V14.01,2013-10-19 14:20:00,
2013-10-19 10:30:00,56.3,44.7,29.92,NNE,16,0.0,3.0,65,0.00,,---,0.00,VWS V14.01,2013-10-19 14:30:00,
2013-10-19 10:40:00,57.1,45.0,29.92,NNE,16,0.0,1.0,64,0.00,,---,0.00,VWS V14.01,2013-10-19 14:40:00,
2013-10-19 10:50:00,57.4,45.3,29.92,NNE,16,0.0,3.0,64,0.00,,---,0.00,VWS V14.01,2013-10-19 14:50:00,
2013-10-19 11:00:00,57.6,45.9,29.91,NNE,16,1.0,3.0,65,0.00,,---,0.00,VWS V14.01,2013-10-19 15:00:00,
2013-10-19 11:10:00,57.7,45.6,29.91,NNE,22,0.0,3.0,64,0.00,,---,0.00,VWS V14.01,2013-10-19 15:10:00,
2013-10-19 11:20:00,58.1,45.6,29.91,NNE,22,0.0,3.0,63,0.00,,---,0.00,VWS V14.01,2013-10-19 15:20:00,
2013-10-19 11:30:00,58.5,45.1,29.91,NNE,22,2.0,2.0,61,0.00,,---,0.00,VWS V14.01,2013-10-19 15:30:00,
2013-10-19 11:40:00,59.0,45.6,29.91,NNE,22,0.0,2.0,61,0.00,,---,0.00,VWS V14.01,2013-10-19 15:40:00,
2013-10-19 11:49:00,59.8,45.5,29.90,NNE,22,0.0,2.0,59,0.00,,---,0.00,VWS V14.01,2013-10-19 15:49:00,
2013-10-19 11:50:00,59.6,45.3,29.91,NNE,22,0.0,3.0,59,0.00,,---,0.00,VWS V14.01,2013-10-19 15:50:00,
2013-10-19 12:00:00,60.1,44.8,29.90,NNE,22,0.0,3.0,57,0.00,,---,0.00,VWS V14.01,2013-10-19 16:00:00,
2013-10-19 12:05:00,60.5,44.3,29.90,NE,35,2.0,3.0,55,0.00,,---,0.00,VWS V14.01,2013-10-19 16:05:00,
2013-10-19 12:10:00,60.4,43.7,29.90,NE,35,0.0,3.0,54,0.00,,---,0.00,VWS V14.01,2013-10-19 16:10:00,
2013-10-19 12:15:00,60.4,43.7,29.89,NE,55,0.0,5.0,54,0.00,,---,0.00,VWS V14.01,2013-10-19 16:15:00,
2013-10-19 12:20:00,60.4,43.7,29.89,NE,55,0.0,4.0,54,0.00,,---,0.00,VWS V14.01,2013-10-19 16:20:00,
2013-10-19 12:25:00,60.6,43.4,29.89,NNE,19,0.0,4.0,53,0.00,,---,0.00,VWS V14.01,2013-10-19 16:25:00,
2013-10-19 12:30:00,60.9,43.2,29.89,NNE,17,0.0,4.0,52,0.00,,---,0.00,VWS V14.01,2013-10-19 16:30:00,
2013-10-19 12:35:00,61.1,42.8,29.89,NE,40,0.0,4.0,51,0.00,,---,0.00,VWS V14.01,2013-10-19 16:35:00,
2013-10-19 12:40:00,61.3,42.0,29.88,NE,47,0.0,6.0,49,0.00,,---,0.00,VWS V14.01,2013-10-19 16:40:00,
2013-10-19 12:45:00,61.3,40.9,29.88,ENE,64,2.0,6.0,47,0.00,,---,0.00,VWS V14.01,2013-10-19 16:45:00,
2013-10-19 12:50:00,61.3,40.9,29.88,ENE,64,1.0,6.0,47,0.00,,---,0.00,VWS V14.01,2013-10-19 16:50:00,
2013-10-19 12:51:00,61.4,40.5,29.88,NE,44,1.0,8.0,46,0.00,,---,0.00,VWS V14.01,2013-10-19 16:51:00,
2013-10-19 12:56:00,61.3,40.9,29.88,North,5,0.0,10.0,47,0.00,,---,0.00,VWS V14.01,2013-10-19 16:56:00,
2013-10-19 13:00:00,61.3,40.9,29.88,North,5,0.0,10.0,47,0.00,,---,0.00,VWS V14.01,2013-10-19 17:00:00,
2013-10-19 13:01:00,61.3,40.9,29.86,North,5,0.0,3.0,47,0.00,,---,0.00,VWS V14.01,2013-10-19 17:01:00,
2013-10-19 13:06:00,61.5,41.1,29.86,North,5,0.0,0.0,47,0.00,,---,0.00,VWS V14.01,2013-10-19 17:06:00,
2013-10-19 13:10:00,61.5,41.1,29.86,North,5,0.0,3.0,47,0.00,,---,0.00,VWS V14.01,2013-10-19 17:10:00,
2013-10-19 13:11:00,61.5,41.7,29.87,NE,55,5.0,5.0,48,0.00,,---,0.00,VWS V14.01,2013-10-19 17:11:00,
2013-10-19 13:16:00,61.4,41.6,29.87,NW,324,0.0,0.0,48,0.00,,---,0.00,VWS V14.01,2013-10-19 17:16:00,
2013-10-19 13:20:00,61.4,41.6,29.87,NW,324,0.0,8.0,48,0.00,,---,0.00,VWS V14.01,2013-10-19 17:20:00,
2013-10-19 13:21:00,61.3,42.0,29.86,NE,38,3.0,4.0,49,0.00,,---,0.00,VWS V14.01,2013-10-19 17:21:00,
2013-10-19 13:26:00,61.1,42.8,29.87,NNE,22,1.0,3.0,51,0.00,,---,0.00,VWS V14.01,2013-10-19 17:26:00,
2013-10-19 13:30:00,61.1,42.8,29.87,NE,50,2.0,8.0,51,0.00,,---,0.00,VWS V14.01,2013-10-19 17:30:00,
2013-10-19 13:31:00,61.1,42.8,29.86,NNE,22,3.0,3.0,51,0.00,,---,0.00,VWS V14.01,2013-10-19 17:31:00,
2013-10-19 13:37:00,61.1,42.8,29.86,NE,54,0.0,4.0,51,0.00,,---,0.00,VWS V14.01,2013-10-19 17:37:00,
2013-10-19 13:40:00,61.1,42.8,29.86,North,11,1.0,8.0,51,0.00,,---,0.00,VWS V14.01,2013-10-19 17:40:00,
2013-10-19 13:42:00,61.0,43.3,29.85,NE,54,1.0,4.0,52,0.00,,---,0.00,VWS V14.01,2013-10-19 17:42:00,
2013-10-19 13:47:00,61.1,42.3,29.85,North,9,0.0,2.0,50,0.00,,---,0.00,VWS V14.01,2013-10-19 17:47:00,
2013-10-19 13:50:00,61.1,42.3,29.86,ENE,60,1.0,5.0,50,0.00,,---,0.00,VWS V14.01,2013-10-19 17:50:00,
2013-10-19 13:52:00,61.3,41.5,29.85,NNE,17,1.0,4.0,48,0.00,,---,0.00,VWS V14.01,2013-10-19 17:52:00,
2013-10-19 13:57:00,61.3,42.0,29.85,NNE,17,1.0,2.0,49,0.00,,---,0.00,VWS V14.01,2013-10-19 17:57:00,
2013-10-19 14:00:00,61.3,42.5,29.85,NNE,17,2.0,4.0,50,0.00,,---,0.00,VWS V14.01,2013-10-19 18:00:00,
2013-10-19 14:02:00,61.4,41.6,29.85,NE,35,2.0,9.0,48,0.00,,---,0.00,VWS V14.01,2013-10-19 18:02:00,
2013-10-19 14:07:00,61.3,40.4,29.84,East,92,7.0,7.0,46,0.00,,---,0.00,VWS V14.01,2013-10-19 18:07:00,
2013-10-19 14:10:00,61.3,40.9,29.84,NNW,333,2.0,9.0,47,0.00,,---,0.00,VWS V14.01,2013-10-19 18:10:00,
2013-10-19 14:12:00,61.1,40.2,29.84,NE,43,1.0,7.0,46,0.00,,---,0.00,VWS V14.01,2013-10-19 18:12:00,
2013-10-19 14:17:00,61.0,40.1,29.84,ENE,63,0.0,3.0,46,0.00,,---,0.00,VWS V14.01,2013-10-19 18:17:00,
2013-10-19 14:20:00,61.0,39.5,29.84,ENE,63,1.0,7.0,45,0.00,,---,0.00,VWS V14.01,2013-10-19 18:20:00,
2013-10-19 14:23:00,60.8,39.3,29.84,ENE,74,1.0,7.0,45,0.00,,---,0.00,VWS V14.01,2013-10-19 18:23:00,
2013-10-19 14:28:00,60.5,39.1,29.83,NE,37,0.0,6.0,45,0.00,,---,0.00,VWS V14.01,2013-10-19 18:28:00,
2013-10-19 14:30:00,60.6,38.6,29.84,ENE,59,1.0,7.0,44,0.00,,---,0.00,VWS V14.01,2013-10-19 18:30:00,
2013-10-19 14:33:00,60.2,39.4,29.83,NE,42,2.0,6.0,46,0.00,,---,0.00,VWS V14.01,2013-10-19 18:33:00,
2013-10-19 14:38:00,60.1,39.8,29.83,North,360,1.0,5.0,47,0.00,,---,0.00,VWS V14.01,2013-10-19 18:38:00,
2013-10-19 14:40:00,60.1,40.4,29.83,NE,42,3.0,6.0,48,0.00,,---,0.00,VWS V14.01,2013-10-19 18:40:00,
2013-10-19 14:43:00,59.9,40.2,29.84,North,360,0.0,5.0,48,0.00,,---,0.00,VWS V14.01,2013-10-19 18:43:00,
2013-10-19 14:48:00,59.8,40.1,29.83,North,5,2.0,2.0,48,0.00,,---,0.00,VWS V14.01,2013-10-19 18:48:00,
2013-10-19 14:50:00,59.9,39.6,29.84,North,5,0.0,5.0,47,0.00,,---,0.00,VWS V14.01,2013-10-19 18:50:00,
2013-10-19 14:53:00,59.7,39.5,29.83,NNW,330,1.0,5.0,47,0.00,,---,0.00,VWS V14.01,2013-10-19 18:53:00,
2013-10-19 14:58:00,59.6,39.9,29.83,NNE,26,0.0,3.0,48,0.00,,---,0.00,VWS V14.01,2013-10-19 18:58:00,
2013-10-19 15:00:00,59.6,39.9,29.83,NNE,26,0.0,5.0,48,0.00,,---,0.00,VWS V14.01,2013-10-19 19:00:00,
2013-10-19 15:03:00,59.5,40.3,29.83,NE,41,5.0,5.0,49,0.00,,---,0.00,VWS V14.01,2013-10-19 19:03:00,
2013-10-19 15:09:00,59.4,40.8,29.83,ENE,57,0.0,1.0,50,0.00,,---,0.00,VWS V14.01,2013-10-19 19:09:00,
2013-10-19 15:10:00,59.4,40.2,29.83,ENE,57,1.0,6.0,49,0.00,,---,0.00,VWS V14.01,2013-10-19 19:10:00,
2013-10-19 15:14:00,59.2,40.6,29.83,ENE,57,1.0,2.0,50,0.00,,---,0.00,VWS V14.01,2013-10-19 19:14:00,
2013-10-19 15:19:00,59.1,40.5,29.83,ENE,59,2.0,5.0,50,0.00,,---,0.00,VWS V14.01,2013-10-19 19:19:00,
2013-10-19 15:20:00,59.2,40.6,29.83,ENE,57,5.0,5.0,50,0.00,,---,0.00,VWS V14.01,2013-10-19 19:20:00,
2013-10-19 15:24:00,58.9,41.3,29.83,ENE,59,1.0,5.0,52,0.00,,---,0.00,VWS V14.01,2013-10-19 19:24:00,
2013-10-19 15:29:00,58.8,41.2,29.83,ENE,77,1.0,5.0,52,0.00,,---,0.00,VWS V14.01,2013-10-19 19:29:00,
2013-10-19 15:30:00,58.9,41.3,29.83,ENE,59,1.0,5.0,52,0.00,,---,0.00,VWS V14.01,2013-10-19 19:30:00,
2013-10-19 15:34:00,58.7,41.1,29.82,NE,45,0.0,6.0,52,0.00,,---,0.00,VWS V14.01,2013-10-19 19:34:00,
2013-10-19 15:39:00,58.5,41.0,29.82,NE,45,0.0,3.0,52,0.00,,---,0.00,VWS V14.01,2013-10-19 19:39:00,
2013-10-19 15:40:00,58.6,41.0,29.82,NE,45,0.0,6.0,52,0.00,,---,0.00,VWS V14.01,2013-10-19 19:40:00,
2013-10-19 15:44:00,58.4,41.3,29.82,NE,38,1.0,3.0,53,0.00,,---,0.00,VWS V14.01,2013-10-19 19:44:00,
2013-10-19 15:49:00,58.3,42.7,29.81,NE,38,0.0,1.0,56,0.00,,---,0.00,VWS V14.01,2013-10-19 19:49:00,
2013-10-19 15:50:00,58.4,41.3,29.82,NE,38,1.0,3.0,53,0.00,,---,0.00,VWS V14.01,2013-10-19 19:50:00,
2013-10-19 15:54:00,58.2,41.7,29.80,NE,38,0.0,3.0,54,0.00,,---,0.00,VWS V14.01,2013-10-19 19:54:00,
2013-10-19 15:59:00,58.0,41.0,29.80,NE,53,2.0,4.0,53,0.00,,---,0.00,VWS V14.01,2013-10-19 19:59:00,
2013-10-19 16:00:00,58.1,41.6,29.80,NE,38,0.0,3.0,54,0.00,,---,0.00,VWS V14.01,2013-10-19 20:00:00,
2013-10-19 16:05:00,57.9,41.4,29.79,NE,53,0.0,4.0,54,0.00,,---,0.00,VWS V14.01,2013-10-19 20:05:00,
2013-10-19 16:10:00,57.8,41.8,29.80,NE,53,0.0,3.0,55,0.00,,---,0.00,VWS V14.01,2013-10-19 20:10:00,
2013-10-19 16:15:00,57.7,41.7,29.78,NE,53,0.0,5.0,55,0.00,,---,0.00,VWS V14.01,2013-10-19 20:15:00,
2013-10-19 16:20:00,57.6,42.0,29.79,NE,52,0.0,2.0,56,0.00,,---,0.00,VWS V14.01,2013-10-19 20:20:00,
2013-10-19 16:25:00,57.6,42.0,29.80,NE,52,0.0,2.0,56,0.00,,---,0.00,VWS V14.01,2013-10-19 20:25:00,
2013-10-19 16:30:00,57.6,42.5,29.80,NE,52,1.0,1.0,57,0.00,,---,0.00,VWS V14.01,2013-10-19 20:30:00,
2013-10-19 16:35:00,57.5,42.4,29.80,South,182,0.0,5.0,57,0.00,,---,0.00,VWS V14.01,2013-10-19 20:35:00,
2013-10-19 16:40:00,57.5,41.9,29.80,ENE,75,0.0,2.0,56,0.00,,---,0.00,VWS V14.01,2013-10-19 20:40:00,
2013-10-19 16:46:00,57.3,42.2,29.80,North,360,0.0,4.0,57,0.00,,---,0.00,VWS V14.01,2013-10-19 20:46:00,
2013-10-19 16:50:00,57.3,42.2,29.80,North,360,0.0,4.0,57,0.00,,---,0.00,VWS V14.01,2013-10-19 20:50:00,
2013-10-19 16:51:00,57.3,42.2,29.80,NNE,24,0.0,3.0,57,0.00,,---,0.00,VWS V14.01,2013-10-19 20:51:00,
2013-10-19 16:56:00,57.1,42.5,29.80,NNE,24,0.0,3.0,58,0.00,,---,0.00,VWS V14.01,2013-10-19 20:56:00,
2013-10-19 17:00:00,57.1,42.5,29.80,NNE,24,0.0,3.0,58,0.00,,---,0.00,VWS V14.01,2013-10-19 21:00:00,
2013-10-19 17:01:00,57.0,42.4,29.80,NNE,24,0.0,3.0,58,0.00,,---,0.00,VWS V14.01,2013-10-19 21:01:00,
2013-10-19 17:06:00,56.9,42.3,29.80,NNE,24,0.0,0.0,58,0.00,,---,0.00,VWS V14.01,2013-10-19 21:06:00,
2013-10-19 17:10:00,56.9,42.3,29.80,NNE,24,0.0,3.0,58,0.00,,---,0.00,VWS V14.01,2013-10-19 21:10:00,
2013-10-19 17:11:00,56.9,42.3,29.80,NNE,24,0.0,0.0,58,0.00,,---,0.00,VWS V14.01,2013-10-19 21:11:00,
2013-10-19 17:16:00,56.7,42.1,29.79,NNE,24,0.0,0.0,58,0.00,,---,0.00,VWS V14.01,2013-10-19 21:16:00,
2013-10-19 17:20:00,56.7,42.1,29.79,NNE,24,0.0,1.0,58,0.00,,---,0.00,VWS V14.01,2013-10-19 21:20:00,
2013-10-19 17:21:00,56.6,43.3,29.80,NNE,24,0.0,1.0,61,0.00,,---,0.00,VWS V14.01,2013-10-19 21:21:00,
2013-10-19 17:26:00,56.5,42.4,29.80,NNE,24,0.0,0.0,59,0.00,,---,0.00,VWS V14.01,2013-10-19 21:26:00,
2013-10-19 17:30:00,56.6,42.5,29.80,NNE,24,0.0,1.0,59,0.00,,---,0.00,VWS V14.01,2013-10-19 21:30:00,
2013-10-19 17:32:00,56.4,42.7,29.80,NNE,24,0.0,1.0,60,0.00,,---,0.00,VWS V14.01,2013-10-19 21:32:00,
2013-10-19 17:37:00,56.3,42.2,29.80,NNE,24,0.0,0.0,59,0.00,,---,0.00,VWS V14.01,2013-10-19 21:37:00,
2013-10-19 17:40:00,56.3,42.6,29.80,NNE,24,0.0,2.0,60,0.00,,---,0.00,VWS V14.01,2013-10-19 21:40:00,
2013-10-19 17:42:00,56.2,42.1,29.79,NNE,24,0.0,2.0,59,0.00,,---,0.00,VWS V14.01,2013-10-19 21:42:00,
2013-10-19 17:47:00,56.2,43.0,29.80,NNE,24,0.0,0.0,61,0.00,,---,0.00,VWS V14.01,2013-10-19 21:47:00,
2013-10-19 17:50:00,56.2,42.9,29.79,NNE,24,0.0,2.0,61,0.00,,---,0.00,VWS V14.01,2013-10-19 21:50:00,
2013-10-19 17:52:00,56.1,43.3,29.80,NNE,24,0.0,1.0,62,0.00,,---,0.00,VWS V14.01,2013-10-19 21:52:00,
2013-10-19 17:57:00,56.0,42.8,29.80,NNE,24,0.0,0.0,61,0.00,,---,0.00,VWS V14.01,2013-10-19 21:57:00,
2013-10-19 18:00:00,56.0,42.8,29.80,NNE,24,0.0,1.0,61,0.00,,---,0.00,VWS V14.01,2013-10-19 22:00:00,
2013-10-19 18:02:00,55.9,43.1,29.80,NNE,24,0.0,1.0,62,0.00,,---,0.00,VWS V14.01,2013-10-19 22:02:00,
2013-10-19 18:07:00,55.8,42.6,29.81,NNW,333,0.0,5.0,61,0.00,,---,0.00,VWS V14.01,2013-10-19 22:07:00,
2013-10-19 18:10:00,55.8,42.6,29.80,NNE,24,0.0,1.0,61,0.00,,---,0.00,VWS V14.01,2013-10-19 22:10:00,
2013-10-19 18:12:00,55.7,42.9,29.80,NNW,333,0.0,5.0,62,0.00,,---,0.00,VWS V14.01,2013-10-19 22:12:00,
2013-10-19 18:18:00,55.7,43.7,29.80,NNW,346,0.0,0.0,64,0.00,,---,0.00,VWS V14.01,2013-10-19 22:18:00,
2013-10-19 18:20:00,55.7,43.3,29.80,NNW,346,0.0,5.0,63,0.00,,---,0.00,VWS V14.01,2013-10-19 22:20:00,
2013-10-19 18:23:00,55.4,44.2,29.80,North,360,1.0,2.0,66,0.00,,---,0.00,VWS V14.01,2013-10-19 22:23:00,
2013-10-19 18:28:00,55.0,45.4,29.80,North,360,0.0,0.0,70,0.00,,---,0.00,VWS V14.01,2013-10-19 22:28:00,
2013-10-19 18:30:00,55.1,44.7,29.80,North,360,0.0,2.0,68,0.00,,---,0.00,VWS V14.01,2013-10-19 22:30:00,
2013-10-19 18:33:00,54.4,44.8,29.79,NNW,340,0.0,4.0,70,0.00,,---,0.00,VWS V14.01,2013-10-19 22:33:00,
2013-10-19 18:38:00,53.9,45.1,29.77,NNW,340,0.0,1.0,72,0.00,,---,0.00,VWS V14.01,2013-10-19 22:38:00,
2013-10-19 18:40:00,54.1,45.3,29.79,NNW,340,0.0,4.0,72,0.00,,---,0.00,VWS V14.01,2013-10-19 22:40:00,
2013-10-19 18:43:00,53.5,45.4,29.77,NNW,340,0.0,1.0,74,0.00,,---,0.00,VWS V14.01,2013-10-19 22:43:00,
2013-10-19 18:48:00,53.3,45.2,29.76,NNW,340,0.0,0.0,74,0.00,,---,0.00,VWS V14.01,2013-10-19 22:48:00,
2013-10-19 18:50:00,53.3,45.2,29.77,NNW,340,0.0,1.0,74,0.00,,---,0.00,VWS V14.01,2013-10-19 22:50:00,
2013-10-19 18:53:00,52.7,45.4,29.77,NNW,340,0.0,1.0,76,0.00,,---,0.00,VWS V14.01,2013-10-19 22:53:00,
2013-10-19 18:58:00,52.3,45.7,29.77,NNW,340,0.0,0.0,78,0.00,,---,0.00,VWS V14.01,2013-10-19 22:58:00,
2013-10-19 19:00:00,52.5,45.5,29.77,NNW,340,0.0,1.0,77,0.00,,---,0.00,VWS V14.01,2013-10-19 23:00:00,
2013-10-19 19:04:00,51.9,45.9,29.77,NNW,340,0.0,1.0,80,0.00,,---,0.00,VWS V14.01,2013-10-19 23:04:00,
2013-10-19 19:09:00,51.6,46.0,29.77,NNW,340,0.0,0.0,81,0.00,,---,0.00,VWS V14.01,2013-10-19 23:09:00,
2013-10-19 19:10:00,51.8,46.2,29.77,NNW,340,0.0,1.0,81,0.00,,---,0.00,VWS V14.01,2013-10-19 23:10:00,
2013-10-19 19:14:00,51.3,45.7,29.77,NNW,340,0.0,0.0,81,0.00,,---,0.00,VWS V14.01,2013-10-19 23:14:00,
2013-10-19 19:19:00,51.1,46.1,29.76,NNW,340,0.0,0.0,83,0.00,,---,0.00,VWS V14.01,2013-10-19 23:19:00,
2013-10-19 19:20:00,51.2,45.9,29.76,NNW,340,0.0,0.0,82,0.00,,---,0.00,VWS V14.01,2013-10-19 23:20:00,
2013-10-19 19:24:00,51.0,46.0,29.76,NNW,340,0.0,0.0,83,0.00,,---,0.00,VWS V14.01,2013-10-19 23:24:00,
2013-10-19 19:29:00,50.9,45.9,29.76,NNW,340,0.0,0.0,83,0.00,,---,0.00,VWS V14.01,2013-10-19 23:29:00,
2013-10-19 19:30:00,50.9,45.9,29.76,NNW,340,0.0,0.0,83,0.00,,---,0.00,VWS V14.01,2013-10-19 23:30:00,
2013-10-19 19:34:00,50.8,45.8,29.76,NNW,340,0.0,0.0,83,0.00,,---,0.00,VWS V14.01,2013-10-19 23:34:00,
2013-10-19 19:39:00,50.8,46.2,29.76,NNW,340,0.0,0.0,84,0.00,,---,0.00,VWS V14.01,2013-10-19 23:39:00,
2013-10-19 19:40:00,50.8,45.8,29.76,NNW,340,0.0,0.0,83,0.00,,---,0.00,VWS V14.01,2013-10-19 23:40:00,
2013-10-19 19:44:00,50.8,46.2,29.75,NNW,340,0.0,0.0,84,0.00,,---,0.00,VWS V14.01,2013-10-19 23:44:00,
2013-10-19 19:50:00,50.8,46.5,29.75,NNW,340,0.0,0.0,85,0.00,,---,0.00,VWS V14.01,2013-10-19 23:50:00,
2013-10-19 19:55:00,50.8,46.5,29.75,NNW,340,0.0,0.0,85,0.00,,---,0.00,VWS V14.01,2013-10-19 23:55:00,
2013-10-19 20:00:00,50.8,46.5,29.74,NNW,340,0.0,0.0,85,0.00,,---,0.00,VWS V14.01,2013-10-20 00:00:00,
2013-10-19 20:05:00,50.9,46.6,29.74,NNW,340,0.0,0.0,85,0.00,,---,0.00,VWS V14.01,2013-10-20 00:05:00,
2013-10-19 20:10:00,50.9,45.6,29.74,NNW,340,0.0,0.0,82,0.00,,---,0.00,VWS V14.01,2013-10-20 00:10:00,
2013-10-19 20:15:00,51.1,45.5,29.75,NNW,340,0.0,1.0,81,0.00,,---,0.00,VWS V14.01,2013-10-20 00:15:00,
2013-10-19 20:20:00,51.2,45.6,29.75,NNW,340,0.0,1.0,81,0.00,,---,0.00,VWS V14.01,2013-10-20 00:20:00,
2013-10-19 20:25:00,51.3,45.7,29.75,NNW,340,0.0,1.0,81,0.00,,---,0.00,VWS V14.01,2013-10-20 00:25:00,
2013-10-19 20:30:00,51.4,45.8,29.74,NNW,340,0.0,0.0,81,0.00,,---,0.00,VWS V14.01,2013-10-20 00:30:00,
2013-10-19 20:35:00,51.4,46.4,29.74,NNW,340,0.0,0.0,83,0.00,,---,0.00,VWS V14.01,2013-10-20 00:35:00,
2013-10-19 20:40:00,51.4,46.4,29.74,NNW,340,0.0,0.0,83,0.00,,---,0.00,VWS V14.01,2013-10-20 00:40:00,
2013-10-19 20:41:00,51.5,46.5,29.74,NNW,340,0.0,0.0,83,0.00,,---,0.00,VWS V14.01,2013-10-20 00:41:00,
2013-10-19 20:46:00,51.5,46.5,29.74,NNW,340,0.0,0.0,83,0.00,,---,0.00,VWS V14.01,2013-10-20 00:46:00,
2013-10-19 20:50:00,51.5,46.8,29.74,NNW,340,0.0,0.0,84,0.00,,---,0.00,VWS V14.01,2013-10-20 00:50:00,
2013-10-19 20:51:00,51.5,46.5,29.74,NNW,340,0.0,0.0,83,0.00,,---,0.00,VWS V14.01,2013-10-20 00:51:00,
2013-10-19 20:56:00,51.5,46.2,29.74,NNW,340,0.0,1.0,82,0.00,,---,0.00,VWS V14.01,2013-10-20 00:56:00,
2013-10-19 21:00:00,51.5,46.2,29.74,NNW,340,0.0,1.0,82,0.00,,---,0.00,VWS V14.01,2013-10-20 01:00:00,
2013-10-19 21:01:00,51.6,46.3,29.73,NNW,340,0.0,0.0,82,0.00,,---,0.00,VWS V14.01,2013-10-20 01:01:00,
2013-10-19 21:06:00,51.7,46.4,29.73,NNW,340,0.0,0.0,82,0.00,,---,0.00,VWS V14.01,2013-10-20 01:06:00,
2013-10-19 21:10:00,51.7,46.4,29.73,NNW,340,0.0,0.0,82,0.00,,---,0.00,VWS V14.01,2013-10-20 01:10:00,
2013-10-19 21:11:00,51.7,46.7,29.73,NNW,340,0.0,0.0,83,0.00,,---,0.00,VWS V14.01,2013-10-20 01:11:00,
2013-10-19 21:16:00,51.8,46.5,29.73,NNW,340,0.0,0.0,82,0.00,,---,0.00,VWS V14.01,2013-10-20 01:16:00,
2013-10-19 21:20:00,51.8,46.5,29.73,NNW,340,0.0,1.0,82,0.00,,---,0.00,VWS V14.01,2013-10-20 01:20:00,
2013-10-19 21:21:00,52.1,46.8,29.73,NNW,340,0.0,0.0,82,0.00,,---,0.00,VWS V14.01,2013-10-20 01:21:00,
2013-10-19 21:26:00,52.3,47.0,29.73,NNW,340,0.0,0.0,82,0.00,,---,0.00,VWS V14.01,2013-10-20 01:26:00,
2013-10-19 21:30:00,52.3,47.0,29.73,NNW,340,0.0,1.0,82,0.00,,---,0.00,VWS V14.01,2013-10-20 01:30:00,
2013-10-19 21:32:00,52.4,47.4,29.73,NNW,340,0.0,0.0,83,0.00,,---,0.00,VWS V14.01,2013-10-20 01:32:00,
2013-10-19 21:37:00,52.5,47.5,29.73,NNW,340,0.0,0.0,83,0.00,,---,0.00,VWS V14.01,2013-10-20 01:37:00,
2013-10-19 21:40:00,52.5,47.5,29.73,NNW,340,0.0,0.0,83,0.00,,---,0.00,VWS V14.01,2013-10-20 01:40:00,
2013-10-19 21:42:00,52.5,48.4,29.74,NNW,340,0.0,0.0,86,0.00,,---,0.00,VWS V14.01,2013-10-20 01:42:00,
2013-10-19 21:47:00,52.3,48.5,29.74,NNW,340,0.0,0.0,87,0.01,,---,0.01,VWS V14.01,2013-10-20 01:47:00,
2013-10-19 21:50:00,52.4,48.7,29.74,NNW,340,0.0,0.0,87,0.00,,---,0.00,VWS V14.01,2013-10-20 01:50:00,
2013-10-19 21:52:00,52.1,49.0,29.74,NNW,340,0.0,0.0,89,0.01,,---,0.01,VWS V14.01,2013-10-20 01:52:00,
2013-10-19 21:57:00,51.8,49.0,29.74,NNW,340,0.0,0.0,90,0.01,,---,0.01,VWS V14.01,2013-10-20 01:57:00,
2013-10-19 22:00:00,51.9,49.1,29.74,NNW,340,0.0,0.0,90,0.01,,---,0.01,VWS V14.01,2013-10-20 02:00:00,
2013-10-19 22:02:00,51.6,49.1,29.74,NNW,340,0.0,1.0,91,0.02,,---,0.02,VWS V14.01,2013-10-20 02:02:00,
2013-10-19 22:07:00,51.4,49.2,29.74,NNW,340,0.0,0.0,92,0.02,,---,0.02,VWS V14.01,2013-10-20 02:07:00,
2013-10-19 22:10:00,51.4,49.2,29.74,NNW,340,0.0,1.0,92,0.02,,---,0.02,VWS V14.01,2013-10-20 02:10:00,
2013-10-19 22:12:00,51.2,49.2,29.74,NNW,340,0.0,2.0,93,0.02,,---,0.02,VWS V14.01,2013-10-20 02:12:00,
2013-10-19 22:17:00,51.1,49.2,29.74,NNW,340,0.0,0.0,93,0.02,,---,0.02,VWS V14.01,2013-10-20 02:17:00,
2013-10-19 22:20:00,51.2,49.2,29.74,NNW,340,0.0,2.0,93,0.02,,---,0.02,VWS V14.01,2013-10-20 02:20:00,
2013-10-19 22:23:00,51.1,49.2,29.74,NNW,340,0.0,1.0,93,0.02,,---,0.02,VWS V14.01,2013-10-20 02:23:00,
2013-10-19 22:28:00,51.0,49.0,29.74,NNW,340,0.0,0.0,93,0.02,,---,0.02,VWS V14.01,2013-10-20 02:28:00,
2013-10-19 22:30:00,51.1,49.2,29.74,NNW,340,0.0,1.0,93,0.02,,---,0.02,VWS V14.01,2013-10-20 02:30:00,
2013-10-19 22:33:00,51.0,49.3,29.74,NNW,340,0.0,0.0,94,0.02,,---,0.02,VWS V14.01,2013-10-20 02:33:00,
2013-10-19 22:38:00,51.0,49.3,29.73,NNW,340,0.0,0.0,94,0.02,,---,0.02,VWS V14.01,2013-10-20 02:38:00,
2013-10-19 22:40:00,51.0,49.3,29.73,NNW,340,0.0,0.0,94,0.02,,---,0.02,VWS V14.01,2013-10-20 02:40:00,
2013-10-19 22:43:00,50.9,49.2,29.73,NNW,340,0.0,0.0,94,0.02,,---,0.02,VWS V14.01,2013-10-20 02:43:00,
2013-10-19 22:48:00,50.9,49.2,29.73,NNW,340,0.0,0.0,94,0.02,,---,0.02,VWS V14.01,2013-10-20 02:48:00,
2013-10-19 22:50:00,50.9,49.2,29.73,NNW,340,0.0,0.0,94,0.02,,---,0.02,VWS V14.01,2013-10-20 02:50:00,
2013-10-19 22:53:00,50.8,49.1,29.72,NNW,340,0.0,0.0,94,0.02,,---,0.02,VWS V14.01,2013-10-20 02:53:00,
2013-10-19 22:58:00,50.7,49.3,29.72,NNW,340,0.0,0.0,95,0.01,,---,0.02,VWS V14.01,2013-10-20 02:58:00,
2013-10-19 23:00:00,50.8,49.1,29.72,NNW,340,0.0,0.0,94,0.02,,---,0.02,VWS V14.01,2013-10-20 03:00:00,
2013-10-19 23:03:00,50.7,49.3,29.72,NNW,340,0.0,0.0,95,0.01,,---,0.02,VWS V14.01,2013-10-20 03:03:00,
2013-10-19 23:08:00,50.6,49.2,29.72,NNW,340,0.0,0.0,95,0.00,,---,0.02,VWS V14.01,2013-10-20 03:08:00,
2013-10-19 23:10:00,50.6,49.2,29.72,NNW,340,0.0,0.0,95,0.01,,---,0.02,VWS V14.01,2013-10-20 03:10:00,
2013-10-19 23:14:00,50.5,49.1,29.72,NNW,340,0.0,0.0,95,0.00,,---,0.02,VWS V14.01,2013-10-20 03:14:00,
2013-10-19 23:19:00,50.4,48.7,29.72,NNW,340,0.0,0.0,94,0.00,,---,0.02,VWS V14.01,2013-10-20 03:19:00,
2013-10-19 23:20:00,50.5,49.1,29.72,NNW,340,0.0,0.0,95,0.00,,---,0.02,VWS V14.01,2013-10-20 03:20:00,
2013-10-19 23:24:00,50.2,48.5,29.72,NNW,340,0.0,0.0,94,0.00,,---,0.02,VWS V14.01,2013-10-20 03:24:00,
2013-10-19 23:29:00,50.0,48.3,29.72,NNW,340,0.0,1.0,94,0.00,,---,0.02,VWS V14.01,2013-10-20 03:29:00,
2013-10-19 23:30:00,50.1,48.4,29.72,NNW,340,0.0,0.0,94,0.00,,---,0.02,VWS V14.01,2013-10-20 03:30:00,
2013-10-19 23:34:00,49.9,48.5,29.72,NNW,340,0.0,1.0,95,0.00,,---,0.02,VWS V14.01,2013-10-20 03:34:00,
2013-10-19 23:39:00,49.9,48.2,29.72,NNW,340,0.0,1.0,94,0.00,,---,0.02,VWS V14.01,2013-10-20 03:39:00,
2013-10-19 23:40:00,49.9,48.2,29.72,NNW,340,0.0,1.0,94,0.00,,---,0.02,VWS V14.01,2013-10-20 03:40:00,
2013-10-19 23:44:00,49.9,48.5,29.71,NNW,340,0.0,1.0,95,0.00,,---,0.02,VWS V14.01,2013-10-20 03:44:00,
2013-10-19 23:49:00,49.8,48.4,29.71,NNW,340,0.0,0.0,95,0.00,,---,0.02,VWS V14.01,2013-10-20 03:49:00,
2013-10-19 23:50:00,49.8,48.4,29.71,NNW,340,0.0,1.0,95,0.00,,---,0.02,VWS V14.01,2013-10-20 03:50:00,
2013-10-19 23:54:00,49.8,48.4,29.71,NNW,340,0.0,0.0,95,0.00,,---,0.02,VWS V14.01,2013-10-20 03:54:00,